La Push, WA

11:20 AM PDT on August 29, 2016 (GMT -0700)
Quillayute

Weather History for KUIL - November, 2011

Change the Weather History Date:

Friday, November 25, 2011

  Actual Average Record
Temperature  
Mean Temperature 40 °F 42 °F  
Max Temperature 47 °F 48 °F 57 °F (2013)
Min Temperature 33 °F 37 °F 22 °F (1993)
Degree Days  
Heating Degree Days 25 23  
Month to date heating degree days 509  
Since 1 July heating degree days 1599  
Cooling Degree Days 0 0  
Month to date cooling degree days 0  
Year to date cooling degree days 19  
Moisture  
Dew Point 35 °F    
Average Humidity 78    
Maximum Humidity 96    
Minimum Humidity 60    
Precipitation  
Precipitation 0.01 in 0.53 in 2.62 in (1977)
Month to date precipitation 12.91  
Year to date precipitation 83.94  
Sea Level Pressure  
Sea Level Pressure 30.25 in    
Wind  
Wind Speed 7 mph (ESE)    
Max Wind Speed 20 mph    
Max Gust Speed 30 mph    
Visibility 10 miles    
Events Rain    
T = Trace of Precipitation, MM = Missing Value Source: NWS Daily Summary

Daily Weather History Graph

Daily Weather History Graph

Search for Another Location

Airport or City:

Trip Planner

Search our weather history database for the weather conditions in past years. The results will help you decide how hot, cold, wet, or windy it might be!

Date:

Astronomy

Nov. 25, 2011 Rise Set
Actual Time 7:38 AM PST 4:31 PM PST
Civil Twilight 7:03 AM PST 5:06 PM PST
Nautical Twilight 6:25 AM PST 5:44 PM PST
Astronomical Twilight 5:48 AM PST 6:21 PM PST
Moon 8:17 AM PST (11/25) 4:59 PM PST (11/25)
Length of Visible Light 10h 02m
Length of Day
8h 52m
New Moon, 0% of the Moon is Illuminated
Nov 25
New Moon
Dec 2
First Quarter
Dec 10
Full
Dec 17
Last Quarter
Dec 24
New

Hourly Weather History & Observations

Time (PST) Temp. Windchill Dew Point Humidity Pressure Visibility Wind Dir Wind Speed Gust Speed Precip Events Conditions
12:53 AM 43.0 °F 35.1 °F 30.9 °F 62% 29.95 in 10.0 mi West 17.3 mph 23.0 mph N/A   Scattered Clouds
1:53 AM 43.0 °F 36.8 °F 33.1 °F 68% 30.00 in 10.0 mi West 11.5 mph 24.2 mph N/A   Scattered Clouds
2:53 AM 44.1 °F 35.9 °F 33.1 °F 65% 30.06 in 10.0 mi West 19.6 mph 25.3 mph N/A   Mostly Cloudy
3:53 AM 42.1 °F 36.6 °F 33.1 °F 70% 30.10 in 10.0 mi WNW 9.2 mph 16.1 mph 0.00 in   Mostly Cloudy
4:53 AM 41.0 °F 38.0 °F 32.0 °F 70% 30.14 in 10.0 mi WNW 4.6 mph - N/A   Scattered Clouds
5:53 AM 35.1 °F - 32.0 °F 89% 30.17 in 10.0 mi Calm Calm - N/A   Scattered Clouds
6:53 AM 35.1 °F 29.3 °F 32.0 °F 89% 30.21 in 10.0 mi East 6.9 mph - N/A   Partly Cloudy
7:53 AM 34.0 °F - 33.1 °F 96% 30.26 in 10.0 mi Calm Calm - N/A   Overcast
8:53 AM 37.0 °F 34.5 °F 35.1 °F 93% 30.30 in 10.0 mi ENE 3.5 mph - N/A   Mostly Cloudy
9:53 AM 41.0 °F 38.0 °F 37.0 °F 86% 30.33 in 10.0 mi East 4.6 mph - N/A   Scattered Clouds
10:53 AM 43.0 °F 41.3 °F 37.9 °F 82% 30.36 in 10.0 mi East 3.5 mph - N/A   Mostly Cloudy
11:53 AM 45.0 °F 41.8 °F 37.0 °F 74% 30.35 in 10.0 mi SE 5.8 mph - N/A   Clear
12:53 PM 46.0 °F 41.9 °F 37.0 °F 71% 30.35 in 10.0 mi SSE 8.1 mph - N/A   Clear
1:53 PM 46.0 °F 42.5 °F 37.0 °F 71% 30.35 in 10.0 mi SSE 6.9 mph - N/A   Clear
2:53 PM 45.0 °F 42.6 °F 37.9 °F 76% 30.33 in 10.0 mi ESE 4.6 mph - N/A   Mostly Cloudy
3:53 PM 44.1 °F 40.8 °F 37.0 °F 76% 30.32 in 10.0 mi East 5.8 mph - N/A   Mostly Cloudy
4:53 PM 43.0 °F 40.3 °F 37.0 °F 80% 30.33 in 10.0 mi East 4.6 mph - N/A   Overcast
5:53 PM 42.1 °F 38.4 °F 37.0 °F 82% 30.32 in 10.0 mi East 5.8 mph - N/A   Overcast
6:53 PM 41.0 °F 38.0 °F 37.9 °F 89% 30.32 in 10.0 mi East 4.6 mph - N/A   Overcast
7:53 PM 41.0 °F 35.8 °F 37.0 °F 86% 30.29 in 10.0 mi East 8.1 mph - N/A   Overcast
8:53 PM 41.0 °F 35.8 °F 36.0 °F 82% 30.28 in 10.0 mi ENE 8.1 mph - N/A   Overcast
9:53 PM 41.0 °F 37.1 °F 36.0 °F 82% 30.26 in 10.0 mi East 5.8 mph - N/A   Overcast
10:53 PM 45.0 °F 40.1 °F 32.0 °F 60% 30.25 in 10.0 mi SE 9.2 mph - N/A   Overcast
11:53 PM 46.0 °F 40.2 °F 34.0 °F 63% 30.25 in 5.0 mi SE 12.7 mph 28.8 mph 0.00 in Rain Light Rain